TimeEST,TemperatureF,Dew PointF,Humidity,Sea Level PressureIn,VisibilityMPH,Wind Direction,Wind SpeedMPH,Gust SpeedMPH,PrecipitationIn,Events,Conditions,WindDirDegrees,DateUTC
12:56 AM,35.1,19.0,52,29.69,10.0,West,12.7,27.6,N/A,,Clear,280,2013-02-20 05:56:00
1:56 AM,34.0,19.0,54,29.70,10.0,West,15.0,24.2,N/A,,Clear,280,2013-02-20 06:56:00
2:56 AM,33.1,19.0,56,29.71,10.0,West,10.4,18.4,N/A,,Clear,270,2013-02-20 07:56:00
3:56 AM,32.0,18.0,56,29.71,10.0,West,11.5,18.4,N/A,,Scattered Clouds,280,2013-02-20 08:56:00
4:56 AM,30.9,18.0,59,29.73,10.0,West,11.5,21.9,N/A,,Mostly Cloudy,270,2013-02-20 09:56:00
5:56 AM,30.2,17.6,60,29.73,10.0,West,13.8,23.0,N/A,,Overcast,270,2013-02-20 10:56:00
6:56 AM,30.0,16.0,56,29.77,10.0,WNW,17.3,25.3,0.00,,Mostly Cloudy,290,2013-02-20 11:56:00
7:56 AM,28.9,12.9,51,29.80,10.0,West,15.0,24.2,0.00,,Mostly Cloudy,270,2013-02-20 12:56:00
8:56 AM,28.9,16.0,58,29.81,9.0,WNW,18.4,28.8,N/A,,Mostly Cloudy,300,2013-02-20 13:56:00
9:56 AM,30.9,10.9,43,29.82,10.0,West,15.0,21.9,0.00,,Mostly Cloudy,280,2013-02-20 14:56:00
10:56 AM,30.9,10.0,42,29.82,10.0,West,21.9,29.9,N/A,,Mostly Cloudy,280,2013-02-20 15:56:00
11:56 AM,30.0,9.0,41,29.81,10.0,WNW,19.6,27.6,N/A,,Mostly Cloudy,290,2013-02-20 16:56:00
12:56 PM,28.9,9.0,43,29.81,10.0,WNW,19.6,28.8,N/A,,Mostly Cloudy,300,2013-02-20 17:56:00
1:56 PM,30.9,9.0,40,29.81,10.0,WNW,19.6,29.9,N/A,,Mostly Cloudy,290,2013-02-20 18:56:00
2:56 PM,28.9,10.0,45,29.82,10.0,NW,21.9,26.5,N/A,,Mostly Cloudy,310,2013-02-20 19:56:00
3:56 PM,30.0,8.1,40,29.84,10.0,West,21.9,31.1,N/A,,Mostly Cloudy,280,2013-02-20 20:56:00
4:56 PM,28.9,9.0,43,29.85,10.0,WNW,19.6,27.6,N/A,,Mostly Cloudy,300,2013-02-20 21:56:00
5:56 PM,28.0,8.1,43,29.87,10.0,WNW,19.6,32.2,N/A,,Mostly Cloudy,290,2013-02-20 22:56:00
6:56 PM,27.0,8.1,45,29.89,10.0,West,19.6,33.4,N/A,,Scattered Clouds,280,2013-02-20 23:56:00
7:56 PM,25.0,8.1,49,29.92,10.0,WNW,19.6,29.9,N/A,,Clear,300,2013-02-21 00:56:00
8:56 PM,25.0,7.0,46,29.91,10.0,WNW,16.1,40.3,N/A,,Clear,290,2013-02-21 01:56:00
9:56 PM,24.1,8.1,51,29.93,10.0,WNW,21.9,29.9,N/A,,Clear,300,2013-02-21 02:56:00
11:56 PM,23.0,9.0,55,29.96,10.0,WNW,21.9,26.5,N/A,,Partly Cloudy,290,2013-02-21 04:56:00